Rock Springs, WY

3:21 AM MDT on September 24, 2017 (GMT -0600)
Rock Springs-Sweetwater

Weather History for KRKS - November, 2013

Change the Weather History Date:

Wednesday, November 20, 2013

  Actual Average Record
Temperature  
Mean Temperature 33 °F 28 °F  
Max Temperature 47 °F 38 °F 62 °F (1989)
Min Temperature 18 °F 19 °F -4 °F (1977)
Degree Days  
Heating Degree Days 32 37  
Month to date heating degree days 590 633  
Since 1 July heating degree days 1531 1600  
Cooling Degree Days 0 0  
Month to date cooling degree days 0 0  
Year to date cooling degree days 517 286  
Moisture  
Dew Point 26 °F    
Average Humidity 69    
Maximum Humidity 92    
Minimum Humidity 45    
Precipitation  
Precipitation 0.01 in 0.01 in 0.35 in (1950)
Month to date precipitation 0.02 0.35  
Year to date precipitation 4.45 7.92  
Sea Level Pressure  
Sea Level Pressure 29.89 in    
Wind  
Wind Speed 14 mph (SW)    
Max Wind Speed 30 mph    
Max Gust Speed 37 mph    
Visibility 8 miles    
Events Rain , Snow    
T = Trace of Precipitation, MM = Missing Value Source: NWS Daily Summary

Daily Weather History Graph

Daily Weather History Graph

Search for Another Location

Airport or City:

Trip Planner

Search our weather history database for the weather conditions in past years. The results will help you decide how hot, cold, wet, or windy it might be!

Date:

Astronomy

Nov. 20, 2013 Rise Set
Actual Time 7:11 AM MST 4:52 PM MST
Civil Twilight 6:41 AM MST 5:22 PM MST
Nautical Twilight 6:07 AM MST 5:56 PM MST
Astronomical Twilight 5:34 AM MST 6:29 PM MST
Moon 7:37 PM MST (11/20) 9:39 AM MST (11/20)
Length of Visible Light 10h 40m
Length of Day
9h 40m
Waning Gibbous, 91% of the Moon is Illuminated
Nov 20
Waning Gibbous
Nov 25
Last Quarter
Dec 2
New
Dec 9
First Quarter
Dec 17
Full

Hourly Weather History & Observations

Time (MST) Temp. Windchill Dew Point Humidity Pressure Visibility Wind Dir Wind Speed Gust Speed Precip Events Conditions
12:54 AM 33.1 °F 22.6 °F 28.9 °F 85% 29.87 in 10.0 mi WSW 16.1 mph - N/A   Clear
1:54 AM 33.1 °F 20.9 °F 28.0 °F 82% 29.88 in 10.0 mi WSW 21.9 mph - N/A   Clear
2:54 AM 32.0 °F 21.6 °F 28.0 °F 85% 29.88 in 10.0 mi SW 15.0 mph - N/A   Clear
3:54 AM 32.0 °F - 28.0 °F 85% 29.90 in 10.0 mi North - - N/A   Scattered Clouds
4:54 AM 30.9 °F 21.2 °F 28.0 °F 89% 29.92 in 10.0 mi WSW 12.7 mph - N/A   Mostly Cloudy
5:54 AM 30.9 °F 21.2 °F 27.0 °F 85% 29.93 in 10.0 mi WSW 12.7 mph - N/A   Partly Cloudy
6:54 AM 30.9 °F - 27.0 °F 85% 29.94 in 10.0 mi Calm Calm - N/A   Clear
7:54 AM 28.9 °F 19.2 °F 26.1 °F 89% 29.94 in 10.0 mi SSW 11.5 mph - N/A   Partly Cloudy
8:54 AM 35.1 °F 26.9 °F 28.9 °F 78% 29.90 in 10.0 mi SW 11.5 mph - N/A   Clear
9:54 AM 39.9 °F 32.9 °F 30.9 °F 70% 29.87 in 10.0 mi WSW 11.5 mph - N/A   Clear
10:54 AM 43.0 °F 36.4 °F 30.0 °F 60% 29.85 in 10.0 mi West 12.7 mph 21.9 mph N/A   Clear
11:54 AM 45.0 °F 38.2 °F 28.9 °F 53% 29.82 in 10.0 mi West 15.0 mph 21.9 mph N/A   Partly Cloudy
12:54 PM 45.0 °F 37.6 °F 26.1 °F 48% 29.79 in 10.0 mi WSW 17.3 mph 23.0 mph N/A   Partly Cloudy
1:54 PM 44.1 °F 37.7 °F 26.1 °F 49% 29.78 in 10.0 mi West 12.7 mph - N/A   Overcast
2:54 PM 45.0 °F 38.9 °F 25.0 °F 46% 29.78 in 10.0 mi West 12.7 mph - N/A   Scattered Clouds
3:54 PM 43.0 °F 36.0 °F 25.0 °F 49% 29.79 in 10.0 mi West 13.8 mph - N/A   Overcast
4:54 PM 41.0 °F 34.7 °F 26.1 °F 55% 29.83 in 10.0 mi West 10.4 mph - N/A   Overcast
5:54 PM 37.0 °F 30.4 °F 27.0 °F 67% 29.86 in 10.0 mi WSW 9.2 mph - N/A   Clear
6:54 PM 36.0 °F 28.5 °F 30.0 °F 79% 29.87 in 10.0 mi SW 10.4 mph - N/A   Overcast
7:54 PM 36.0 °F 28.5 °F 30.0 °F 79% 29.89 in 10.0 mi SW 10.4 mph - N/A   Overcast
8:54 PM 36.0 °F 28.5 °F 32.0 °F 86% 29.88 in 10.0 mi SW 10.4 mph - N/A   Overcast
9:49 PM 35.6 °F 31.7 °F 32.0 °F 87% 29.90 in 8.0 mi East 4.6 mph - 0.00 in Rain Light Rain
9:54 PM 30.9 °F 19.4 °F 28.0 °F 89% 29.90 in 7.0 mi ENE 17.3 mph 23.0 mph 0.00 in Rain Light Freezing Rain
10:01 PM 25.0 °F 9.5 °F 23.0 °F 92% 29.92 in 2.0 mi ENE 24.2 mph - 0.00 in Snow Light Snow
10:05 PM 24.1 °F 8.3 °F 21.9 °F 91% 29.92 in 1.2 mi ENE 24.2 mph - 0.00 in Snow Light Snow
10:16 PM 23.0 °F 7.2 °F 21.0 °F 92% 29.92 in 2.0 mi ENE 23.0 mph - 0.00 in Snow Light Snow
10:33 PM 21.9 °F 5.1 °F 19.9 °F 92% 29.93 in 1.5 mi ENE 25.3 mph 32.2 mph 0.00 in Snow Light Snow
10:40 PM 21.9 °F 4.5 °F 19.0 °F 89% 29.93 in 1.0 mi ENE 27.6 mph 31.1 mph 0.00 in Snow Light Snow
10:54 PM 21.0 °F 3.9 °F 19.0 °F 92% 29.97 in 1.0 mi ENE 25.3 mph 31.1 mph 0.00 in Snow Light Snow
11:37 PM 19.0 °F 1.3 °F 16.0 °F 88% 29.95 in 0.8 mi ENE 25.3 mph 36.8 mph 0.01 in Snow Light Snow
11:54 PM 18.0 °F 0.6 °F 15.1 °F 88% 30.00 in 1.0 mi ENE 23.0 mph 32.2 mph 0.01 in Snow Light Snow